Home   Weather   Alwar   Past weeks

Flag for India Past Weather in Alwar, Rajasthan, India — Yesterday and Last 2 Weeks

75 °F


Feels Like: 77 °F
Forecast: 60 / 90 °F
Wind: 6 mph from Northeast

Location: Jaipur / Sanganer

Current Time: Oct 27, 2016 at 4:55:01 AM

Latest Report: Oct 27, 2016 at 4:00 AM

Visibility: 2 mi

Pressure: 29.98 "Hg

Humidity: 25%

Dew Point: 37 °F

Location of AlwarLocation

Past Weather in Alwar — Graph


Alwar Temperature Yesterday

Maximum temperature yesterday: 91 °F (at 1:30 PM)
Minimum temperature yesterday: 75 °F (at 12:00 AM)
Average temperature yesterday: 83 °F

High & Low Weather Summary for the Past Weeks

High95 °F (Oct 15, 2:00 PM)61% (Oct 15, 7:30 AM)30.01 "Hg (Oct 15, 7:30 AM)
Low66 °F (Oct 18, 6:00 AM)15% (Oct 15, 3:00 PM)29.77 "Hg (Oct 12, 3:00 AM)
Average83 °F34%29.88 "Hg
* Reported Oct 12 2:30 AM — Oct 27 3:00 AM, Alwar, Weather by CustomWeather, © 2016

Note: Actual official high and low records may vary slightly from our data, if they occured in-between our weather recording intervals... More about our weather records


Alwar Weather History for the Previous 24 Hours

Scroll right to see more
Time TempWeatherWind HumidityBarometerVisibility
3:00 AM
Thu, Oct 27
75 °FHaze.5 mph27%29.98 "Hg2 mi
2:30 AM77 °FHaze.3 mph28%29.98 "Hg2 mi
2:00 AM70 °FHaze.2 mph38%29.98 "Hg2 mi
1:30 AM77 °FHaze.5 mph28%29.98 "Hg2 mi
1:00 AM72 °FHaze.2 mph38%29.98 "Hg2 mi
12:00 AM79 °FHaze.3 mph26%29.98 "Hg2 mi
11:30 PM
Wed, Oct 26
81 °FHaze.6 mph24%30.01 "Hg2 mi
11:00 PM81 °FHaze.5 mph26%30.01 "Hg2 mi
10:00 PM79 °FHaze.3 mph30%30.01 "Hg2 mi
9:30 PM79 °FHaze.2 mph32%29.98 "Hg2 mi
9:00 PM81 °FHaze.3 mph28%29.98 "Hg2 mi
8:30 PM82 °FHaze.3 mph26%29.98 "Hg2 mi
8:00 PM84 °FHaze.3 mph25%29.98 "Hg2 mi
7:30 PM84 °FHaze.5 mph27%29.95 "Hg2 mi
7:00 PM82 °FHaze.2 mph28%29.95 "Hg2 mi
6:00 PM88 °FHaze.3 mph21%29.92 "Hg3 mi
5:30 PM90 °FHaze.3 mph20%29.92 "Hg3 mi
5:00 PM90 °FPassing clouds.3 mph21%29.92 "Hg4 mi
4:00 PM91 °FScattered clouds.7 mph20%29.89 "Hg4 mi
3:00 PM91 °FScattered clouds.8 mph21%29.92 "Hg4 mi
2:00 PM91 °FScattered clouds.6 mph21%29.92 "Hg4 mi
1:30 PM91 °FScattered clouds.6 mph23%29.95 "Hg4 mi
1:00 PM90 °FScattered clouds.7 mph22%29.95 "Hg4 mi
12:30 PM90 °FPassing clouds.3 mph29%29.95 "Hg4 mi
12:00 PM90 °FClear.5 mph31%29.98 "Hg4 mi
11:30 AM88 °FClear.8 mph33%29.98 "Hg4 mi
11:00 AM86 °FClear.9 mph38%29.98 "Hg4 mi
10:00 AM84 °FClear.7 mph40%29.98 "Hg4 mi
9:30 AM82 °FClear.8 mph42%29.98 "Hg4 mi
9:00 AM82 °FHaze.7 mph42%29.98 "Hg3 mi
8:30 AM81 °FHaze.6 mph45%29.98 "Hg2 mi
8:00 AM79 °FHaze.6 mph48%29.95 "Hg2 mi
7:30 AM75 °FHaze.6 mph54%29.95 "Hg2 mi
7:00 AM75 °FHaze.6 mph50%29.92 "Hg2 mi
6:00 AM75 °FHaze.5 mph50%29.89 "Hg2 mi
5:30 AM75 °FHaze.2 mph50%29.89 "Hg2 mi
5:00 AM75 °FHaze.3 mph50%29.89 "Hg2 mi
4:00 AM77 °FHaze.6 mph47%29.89 "Hg2 mi
Weather by CustomWeather, © 2016

See weather overviewHow to use our weather pages